| time (UTC) | temp F | wind direction | speed MPH | gust MPH | rain 1hr in | rain 24hr in | rain mn in | humidity % | barometer mb |
| 20260507182106 | 60 | 0 | 5.0 | 13.0 | 0.00 | 0.00 | 0.00 | 25 | 1011.7 |
| 20260507181055 | 61 | 0 | 7.0 | 19.0 | 0.00 | 0.00 | 0.00 | 25 | 1011.8 |
| 20260507180054 | 61 | 0 | 5.0 | 13.0 | 0.00 | 0.00 | 0.00 | 24 | 1012.0 |
| 20260507175555 | 61 | 0 | 4.0 | 13.0 | 0.00 | 0.00 | 0.00 | 24 | 1011.9 |
| 20260507175054 | 61 | 0 | 4.0 | 12.0 | 0.00 | 0.00 | 0.00 | 25 | 1012.0 |
| 20260507174056 | 60 | 0 | 5.0 | 14.0 | 0.00 | 0.00 | 0.00 | 26 | 1012.2 |
| 20260507173557 | 60 | 0 | 5.0 | 12.0 | 0.00 | 0.00 | 0.00 | 26 | 1012.3 |
| 20260507173052 | 61 | 0 | 5.0 | 13.0 | 0.00 | 0.00 | 0.00 | 26 | 1012.4 |
| 20260507172054 | 60 | 0 | 5.0 | 12.0 | 0.00 | 0.00 | 0.00 | 25 | 1012.7 |
| 20260507171554 | 60 | 0 | 5.0 | 12.0 | 0.00 | 0.00 | 0.00 | 26 | 1012.8 |
| 20260507171051 | 60 | 0 | 5.0 | 12.0 | 0.00 | 0.00 | 0.00 | 27 | 1012.8 |
| 20260507170552 | 60 | 0 | 5.0 | 14.0 | 0.00 | 0.00 | 0.00 | 25 | 1012.9 |
| 20260507170049 | 60 | 0 | 7.0 | 15.0 | 0.00 | 0.00 | 0.00 | 25 | 1013.0 |
| 20260507165549 | 60 | 0 | 7.0 | 17.0 | 0.00 | 0.00 | 0.00 | 26 | 1013.1 |
| 20260507165050 | 61 | 0 | 5.0 | 17.0 | 0.00 | 0.00 | 0.00 | 26 | 1013.1 |
| 20260507164549 | 61 | 0 | 5.0 | 16.0 | 0.00 | 0.00 | 0.00 | 26 | 1013.1 |
| 20260507163549 | 60 | 0 | 6.0 | 14.0 | 0.00 | 0.00 | 0.00 | 28 | 1013.3 |
| 20260507163052 | 59 | 0 | 5.0 | 14.0 | 0.00 | 0.00 | 0.00 | 27 | 1013.4 |
| 20260507162551 | 60 | 0 | 4.0 | 13.0 | 0.00 | 0.00 | 0.00 | 29 | 1013.4 |
| 20260507162050 | 59 | 0 | 4.0 | 13.0 | 0.00 | 0.00 | 0.00 | 28 | 1013.5 |
| 20260507161549 | 59 | 0 | 4.0 | 15.0 | 0.00 | 0.00 | 0.00 | 28 | 1013.5 |
| 20260507160546 | 59 | 0 | 4.0 | 9.0 | 0.00 | 0.00 | 0.00 | 28 | 1013.6 |
| 20260507160047 | 59 | 0 | 4.0 | 10.0 | 0.00 | 0.00 | 0.00 | 30 | 1013.7 |
| 20260507155547 | 58 | 0 | 5.0 | 12.0 | 0.00 | 0.00 | 0.00 | 30 | 1013.8 |
| 20260507155046 | 58 | 0 | 5.0 | 12.0 | 0.00 | 0.00 | 0.00 | 27 | 1013.9 |
| 20260507154548 | 58 | 0 | 5.0 | 11.0 | 0.00 | 0.00 | 0.00 | 28 | 1013.9 |
| 20260507154048 | 58 | 0 | 4.0 | 10.0 | 0.00 | 0.00 | 0.00 | 29 | 1014.0 |
| 20260507153543 | 57 | 0 | 4.0 | 13.0 | 0.00 | 0.00 | 0.00 | 31 | 1014.0 |
| 20260507153043 | 57 | 0 | 5.0 | 13.0 | 0.00 | 0.00 | 0.00 | 32 | 1014.0 |
| 20260507152044 | 58 | 0 | 2.0 | 9.0 | 0.00 | 0.00 | 0.00 | 30 | 1014.1 |
| 20260507151544 | 57 | 0 | 3.0 | 9.0 | 0.00 | 0.00 | 0.00 | 30 | 1014.1 |
| 20260507151043 | 56 | 0 | 3.0 | 9.0 | 0.00 | 0.00 | 0.00 | 31 | 1014.2 |
| 20260507150543 | 57 | 0 | 3.0 | 8.0 | 0.00 | 0.00 | 0.00 | 32 | 1014.2 |
| 20260507150043 | 56 | 0 | 3.0 | 9.0 | 0.00 | 0.00 | 0.00 | 30 | 1014.2 |
| 20260507145543 | 55 | 0 | 3.0 | 9.0 | 0.00 | 0.00 | 0.00 | 32 | 1014.3 |
| 20260507145042 | 55 | 0 | 3.0 | 8.0 | 0.00 | 0.00 | 0.00 | 32 | 1014.3 |
| 20260507144542 | 56 | 0 | 2.0 | 8.0 | 0.00 | 0.00 | 0.00 | 34 | 1014.4 |
| 20260507144043 | 54 | 0 | 2.0 | 5.0 | 0.00 | 0.00 | 0.00 | 34 | 1014.5 |
| 20260507143544 | 55 | 0 | 2.0 | 9.0 | 0.00 | 0.00 | 0.00 | 34 | 1014.5 |
| 20260507143044 | 55 | 0 | 3.0 | 9.0 | 0.00 | 0.00 | 0.00 | 38 | 1014.5 |
| 20260507142544 | 53 | 0 | 3.0 | 8.0 | 0.00 | 0.00 | 0.00 | 39 | 1014.5 |
| 20260507142039 | 54 | 0 | 2.0 | 6.0 | 0.00 | 0.00 | 0.00 | 36 | 1014.6 |
| 20260507141540 | 53 | 0 | 3.0 | 9.0 | 0.00 | 0.00 | 0.00 | 39 | 1014.7 |
| 20260507141041 | 52 | 0 | 3.0 | 9.0 | 0.00 | 0.00 | 0.00 | 38 | 1014.7 |
| 20260507140540 | 52 | 0 | 2.0 | 8.0 | 0.00 | 0.00 | 0.00 | 37 | 1014.7 |
| 20260507140041 | 52 | 0 | 2.0 | 5.0 | 0.00 | 0.00 | 0.00 | 40 | 1014.6 |
| 20260507135037 | 51 | 0 | 2.0 | 5.0 | 0.00 | 0.00 | 0.00 | 38 | 1014.6 |
| 20260507134538 | 52 | 0 | 1.0 | 4.0 | 0.00 | 0.00 | 0.00 | 42 | 1014.6 |
| 20260507134038 | 51 | 0 | 2.0 | 4.0 | 0.00 | 0.00 | 0.00 | 41 | 1014.5 |
| 20260507133535 | 50 | 0 | 1.0 | 4.0 | 0.00 | 0.00 | 0.00 | 42 | 1014.5 |
| 20260507133036 | 51 | 0 | 1.0 | 4.0 | 0.00 | 0.00 | 0.00 | 42 | 1014.4 |
| 20260507132534 | 50 | 0 | 0.0 | 2.0 | 0.00 | 0.00 | 0.00 | 44 | 1014.4 |
| 20260507132035 | 49 | 0 | 1.0 | 3.0 | 0.00 | 0.00 | 0.00 | 43 | 1014.5 |
| 20260507131534 | 48 | 0 | 1.0 | 3.0 | 0.00 | 0.00 | 0.00 | 45 | 1014.3 |
| 20260507131034 | 46 | 0 | 1.0 | 3.0 | 0.00 | 0.00 | 0.00 | 54 | 1014.4 |
| 20260507130532 | 44 | 0 | 0.0 | 2.0 | 0.00 | 0.00 | 0.00 | 60 | 1014.4 |
| 20260507130033 | 43 | 0 | 0.0 | 2.0 | 0.00 | 0.00 | 0.00 | 61 | 1014.4 |
| 20260507125034 | 42 | 0 | 0.0 | 0.0 | 0.00 | 0.00 | 0.00 | 62 | 1014.5 |
| 20260507124534 | 41 | 0 | 0.0 | 0.0 | 0.00 | 0.00 | 0.00 | 63 | 1014.5 |
| 20260507124029 | 41 | 0 | 0.0 | 0.0 | 0.00 | 0.00 | 0.00 | 63 | 1014.5 |
| 20260507123530 | 41 | 0 | 0.0 | 0.0 | 0.00 | 0.00 | 0.00 | 63 | 1014.5 |
| 20260507123030 | 40 | 0 | 0.0 | 1.0 | 0.00 | 0.00 | 0.00 | 63 | 1014.5 |
| 20260507122529 | 40 | 0 | 0.0 | 2.0 | 0.00 | 0.00 | 0.00 | 64 | 1014.5 |
| 20260507121030 | 39 | 0 | 0.0 | 1.0 | 0.00 | 0.00 | 0.00 | 64 | 1014.5 |
| 20260507120528 | 38 | 0 | 0.0 | 1.0 | 0.00 | 0.00 | 0.00 | 64 | 1014.5 |
| 20260507115524 | 38 | 0 | 0.0 | 0.0 | 0.00 | 0.00 | 0.00 | 64 | 1014.5 |
| 20260507115025 | 38 | 0 | 0.0 | 0.0 | 0.00 | 0.00 | 0.00 | 63 | 1014.4 |
| 20260507114526 | 37 | 0 | 0.0 | 0.0 | 0.00 | 0.00 | 0.00 | 63 | 1014.4 |
| 20260507114025 | 37 | 0 | 0.0 | 0.0 | 0.00 | 0.00 | 0.00 | 63 | 1014.4 |
| 20260507113526 | 37 | 0 | 0.0 | 0.0 | 0.00 | 0.00 | 0.00 | 62 | 1014.4 |
| 20260507113025 | 37 | 0 | 0.0 | 0.0 | 0.00 | 0.00 | 0.00 | 62 | 1014.4 |
| 20260507112524 | 37 | 0 | 0.0 | 0.0 | 0.00 | 0.00 | 0.00 | 62 | 1014.4 |
| 20260507112026 | 37 | 0 | 0.0 | 0.0 | 0.00 | 0.00 | 0.00 | 61 | 1014.4 |
| 20260507111526 | 37 | 0 | 0.0 | 0.0 | 0.00 | 0.00 | 0.00 | 61 | 1014.4 |
| 20260507111022 | 37 | 0 | 0.0 | 0.0 | 0.00 | 0.00 | 0.00 | 61 | 1014.4 |
| 20260507110022 | 37 | 0 | 0.0 | 0.0 | 0.00 | 0.00 | 0.00 | 61 | 1014.4 |
| 20260507105520 | 37 | 0 | 0.0 | 0.0 | 0.00 | 0.00 | 0.00 | 60 | 1014.3 |
| 20260507105021 | 38 | 0 | 0.0 | 0.0 | 0.00 | 0.00 | 0.00 | 60 | 1014.3 |
| 20260507104520 | 38 | 0 | 0.0 | 0.0 | 0.00 | 0.00 | 0.00 | 60 | 1014.2 |
| 20260507104022 | 38 | 0 | 0.0 | 0.0 | 0.00 | 0.00 | 0.00 | 60 | 1014.3 |
| 20260507103520 | 38 | 0 | 0.0 | 0.0 | 0.00 | 0.00 | 0.00 | 60 | 1014.3 |
| 20260507102518 | 38 | 0 | 0.0 | 0.0 | 0.00 | 0.00 | 0.00 | 60 | 1014.2 |
| 20260507102017 | 38 | 0 | 0.0 | 0.0 | 0.00 | 0.00 | 0.00 | 60 | 1014.3 |
| 20260507101518 | 38 | 0 | 0.0 | 0.0 | 0.00 | 0.00 | 0.00 | 60 | 1014.2 |
| 20260507101016 | 38 | 0 | 0.0 | 0.0 | 0.00 | 0.00 | 0.00 | 60 | 1014.3 |
| 20260507100517 | 38 | 0 | 0.0 | 0.0 | 0.00 | 0.00 | 0.00 | 60 | 1014.4 |
| 20260507100017 | 38 | 0 | 0.0 | 0.0 | 0.00 | 0.00 | 0.00 | 60 | 1014.4 |
| 20260507095518 | 38 | 0 | 0.0 | 0.0 | 0.00 | 0.00 | 0.00 | 61 | 1014.3 |
| 20260507095016 | 38 | 0 | 0.0 | 0.0 | 0.00 | 0.00 | 0.00 | 61 | 1014.3 |
| 20260507094518 | 38 | 0 | 0.0 | 0.0 | 0.00 | 0.00 | 0.00 | 61 | 1014.3 |
| 20260507094013 | 38 | 0 | 0.0 | 0.0 | 0.00 | 0.00 | 0.00 | 61 | 1014.4 |
| 20260507093512 | 38 | 0 | 0.0 | 0.0 | 0.00 | 0.00 | 0.00 | 61 | 1014.3 |
| 20260507093014 | 38 | 0 | 0.0 | 0.0 | 0.00 | 0.00 | 0.00 | 61 | 1014.4 |
| 20260507092512 | 38 | 0 | 0.0 | 0.0 | 0.00 | 0.00 | 0.00 | 60 | 1014.3 |
| 20260507092013 | 38 | 0 | 0.0 | 0.0 | 0.00 | 0.00 | 0.00 | 60 | 1014.4 |
| 20260507091513 | 38 | 0 | 0.0 | 0.0 | 0.00 | 0.00 | 0.00 | 60 | 1014.3 |
| 20260507091014 | 38 | 0 | 0.0 | 0.0 | 0.00 | 0.00 | 0.00 | 60 | 1014.3 |
| 20260507090512 | 38 | 0 | 0.0 | 0.0 | 0.00 | 0.00 | 0.00 | 60 | 1014.4 |
| 20260507085510 | 38 | 0 | 0.0 | 0.0 | 0.00 | 0.00 | 0.00 | 60 | 1014.5 |
| 20260507084509 | 38 | 0 | 0.0 | 1.0 | 0.00 | 0.00 | 0.00 | 60 | 1014.3 |
| 20260507084008 | 38 | 0 | 0.0 | 0.0 | 0.00 | 0.00 | 0.00 | 60 | 1014.3 |
| 20260507083510 | 38 | 0 | 0.0 | 0.0 | 0.00 | 0.00 | 0.00 | 60 | 1014.2 |
| 20260507083010 | 38 | 0 | 0.0 | 0.0 | 0.00 | 0.00 | 0.00 | 60 | 1014.2 |
| 20260507082511 | 38 | 0 | 0.0 | 0.0 | 0.00 | 0.00 | 0.00 | 60 | 1014.2 |
| 20260507082010 | 38 | 0 | 0.0 | 2.0 | 0.00 | 0.00 | 0.00 | 60 | 1014.2 |
| 20260507081507 | 38 | 0 | 0.0 | 2.0 | 0.00 | 0.00 | 0.00 | 59 | 1014.3 |
| 20260507081003 | 38 | 0 | 0.0 | 0.0 | 0.00 | 0.00 | 0.00 | 59 | 1014.3 |
| 20260507080455 | 38 | 0 | 0.0 | 0.0 | 0.00 | 0.00 | 0.00 | 59 | 1014.4 |
| 20260507075956 | 38 | 0 | 0.0 | 0.0 | 0.00 | 0.00 | 0.00 | 59 | 1014.3 |
| 20260507075452 | 38 | 0 | 0.0 | 0.0 | 0.00 | 0.00 | 0.00 | 59 | 1014.4 |
| 20260507074951 | 38 | 0 | 0.0 | 0.0 | 0.00 | 0.00 | 0.00 | 59 | 1014.5 |
| 20260507074448 | 38 | 0 | 0.0 | 0.0 | 0.00 | 0.00 | 0.00 | 58 | 1014.4 |
| 20260507073948 | 38 | 0 | 0.0 | 0.0 | 0.00 | 0.00 | 0.00 | 58 | 1014.4 |
| 20260507072445 | 38 | 0 | 0.0 | 0.0 | 0.00 | 0.00 | 0.00 | 58 | 1014.5 |
| 20260507071444 | 39 | 0 | 0.0 | 0.0 | 0.00 | 0.00 | 0.00 | 58 | 1014.6 |
| 20260507070942 | 39 | 0 | 0.0 | 0.0 | 0.00 | 0.00 | 0.00 | 58 | 1014.6 |
| 20260507070440 | 39 | 0 | 0.0 | 0.0 | 0.00 | 0.00 | 0.00 | 58 | 1014.5 |
| 20260507065940 | 39 | 0 | 0.0 | 0.0 | 0.00 | 0.00 | 0.00 | 58 | 1014.4 |
| 20260507065438 | 39 | 0 | 0.0 | 1.0 | 0.00 | 0.00 | 0.00 | 58 | 1014.4 |
| 20260507064934 | 39 | 0 | 0.0 | 1.0 | 0.00 | 0.00 | 0.00 | 57 | 1014.5 |
| 20260507064435 | 39 | 0 | 0.0 | 2.0 | 0.00 | 0.00 | 0.00 | 57 | 1014.5 |
| 20260507063934 | 39 | 0 | 0.0 | 4.0 | 0.00 | 0.00 | 0.00 | 57 | 1014.5 |
| 20260507063431 | 39 | 0 | 0.0 | 4.0 | 0.00 | 0.00 | 0.00 | 57 | 1014.4 |
| 20260507062930 | 39 | 0 | 0.0 | 0.0 | 0.00 | 0.00 | 0.00 | 56 | 1014.5 |
| 20260507062431 | 39 | 0 | 0.0 | 0.0 | 0.00 | 0.00 | 0.00 | 56 | 1014.5 |
| 20260507061929 | 39 | 0 | 0.0 | 0.0 | 0.00 | 0.00 | 0.00 | 55 | 1014.5 |
| 20260507061430 | 39 | 0 | 0.0 | 0.0 | 0.00 | 0.00 | 0.00 | 55 | 1014.5 |
| 20260507060430 | 40 | 0 | 0.0 | 0.0 | 0.00 | 0.00 | 0.00 | 54 | 1014.5 |
| 20260507055928 | 40 | 0 | 0.0 | 0.0 | 0.00 | 0.00 | 0.00 | 54 | 1014.5 |
| 20260507055424 | 40 | 0 | 0.0 | 0.0 | 0.00 | 0.00 | 0.00 | 53 | 1014.6 |
| 20260507054923 | 40 | 0 | 0.0 | 0.0 | 0.00 | 0.00 | 0.00 | 53 | 1014.5 |
| 20260507053924 | 41 | 0 | 0.0 | 0.0 | 0.00 | 0.00 | 0.00 | 53 | 1014.6 |
| 20260507053423 | 41 | 0 | 0.0 | 0.0 | 0.00 | 0.00 | 0.00 | 52 | 1014.5 |
| 20260507052921 | 41 | 0 | 0.0 | 0.0 | 0.00 | 0.00 | 0.00 | 52 | 1014.5 |
| 20260507052419 | 42 | 0 | 0.0 | 0.0 | 0.00 | 0.00 | 0.00 | 52 | 1014.6 |
| 20260507051920 | 42 | 0 | 0.0 | 0.0 | 0.00 | 0.00 | 0.00 | 51 | 1014.6 |
| 20260507051418 | 42 | 0 | 0.0 | 0.0 | 0.00 | 0.00 | 0.00 | 51 | 1014.6 |
| 20260507050419 | 42 | 0 | 0.0 | 0.0 | 0.00 | 0.00 | 0.00 | 50 | 1014.5 |
| 20260507045916 | 43 | 0 | 0.0 | 0.0 | 0.00 | 0.00 | 0.00 | 50 | 1014.5 |
| 20260507045414 | 43 | 0 | 0.0 | 0.0 | 0.00 | 0.00 | 0.00 | 50 | 1014.5 |
| 20260507044916 | 43 | 0 | 0.0 | 0.0 | 0.00 | 0.00 | 0.00 | 50 | 1014.5 |
| 20260507044410 | 43 | 0 | 0.0 | 0.0 | 0.00 | 0.00 | 0.00 | 49 | 1014.5 |
| 20260507043902 | 43 | 0 | 0.0 | 0.0 | 0.00 | 0.00 | 0.00 | 49 | 1014.6 |
| 20260507043356 | 43 | 0 | 0.0 | 0.0 | 0.00 | 0.00 | 0.00 | 48 | 1014.6 |
| 20260507042855 | 44 | 0 | 0.0 | 0.0 | 0.00 | 0.00 | 0.00 | 48 | 1014.6 |
| 20260507042353 | 44 | 0 | 0.0 | 0.0 | 0.00 | 0.00 | 0.00 | 48 | 1014.5 |
| 20260507041852 | 44 | 0 | 0.0 | 0.0 | 0.00 | 0.00 | 0.00 | 48 | 1014.6 |
| 20260507040851 | 44 | 0 | 0.0 | 0.0 | 0.00 | 0.00 | 0.00 | 47 | 1014.6 |
| 20260507040350 | 44 | 0 | 0.0 | 0.0 | 0.00 | 0.00 | 0.00 | 47 | 1014.6 |
| 20260507035849 | 45 | 0 | 0.0 | 0.0 | 0.00 | 0.00 | 0.00 | 46 | 1014.7 |
| 20260507035351 | 45 | 0 | 0.0 | 0.0 | 0.00 | 0.00 | 0.00 | 46 | 1014.6 |
| 20260507034847 | 45 | 0 | 0.0 | 0.0 | 0.00 | 0.00 | 0.00 | 46 | 1014.6 |
| 20260507034346 | 45 | 0 | 0.0 | 0.0 | 0.00 | 0.00 | 0.00 | 45 | 1014.6 |
| 20260507033843 | 46 | 0 | 0.0 | 2.0 | 0.00 | 0.00 | 0.00 | 45 | 1014.6 |
| 20260507033343 | 46 | 0 | 1.0 | 2.0 | 0.00 | 0.00 | 0.00 | 45 | 1014.6 |
| 20260507032840 | 46 | 0 | 1.0 | 3.0 | 0.00 | 0.00 | 0.00 | 45 | 1014.6 |
| 20260507031838 | 46 | 0 | 0.0 | 5.0 | 0.00 | 0.00 | 0.00 | 44 | 1014.6 |
| 20260507031337 | 47 | 0 | 1.0 | 5.0 | 0.00 | 0.00 | 0.00 | 44 | 1014.6 |
| 20260507030833 | 47 | 0 | 2.0 | 5.0 | 0.00 | 0.00 | 0.00 | 43 | 1014.6 |
| 20260507030331 | 47 | 0 | 2.0 | 4.0 | 0.00 | 0.00 | 0.00 | 43 | 1014.7 |
| 20260507025329 | 47 | 0 | 2.0 | 4.0 | 0.00 | 0.00 | 0.00 | 43 | 1014.5 |
| 20260507024829 | 47 | 0 | 2.0 | 6.0 | 0.00 | 0.00 | 0.00 | 42 | 1014.5 |
| 20260507024329 | 48 | 0 | 2.0 | 6.0 | 0.00 | 0.00 | 0.00 | 42 | 1014.4 |
| 20260507023316 | 48 | 0 | 2.0 | 8.0 | 0.00 | 0.00 | 0.00 | 42 | 1014.3 |
| 20260507022810 | 48 | 0 | 2.0 | 4.0 | 0.00 | 0.00 | 0.00 | 42 | 1014.3 |
| 20260507022306 | 48 | 0 | 2.0 | 8.0 | 0.00 | 0.00 | 0.00 | 41 | 1014.2 |
| 20260507021758 | 49 | 0 | 2.0 | 8.0 | 0.00 | 0.00 | 0.00 | 41 | 1014.1 |
| 20260507021252 | 49 | 0 | 2.0 | 5.0 | 0.00 | 0.00 | 0.00 | 40 | 1014.1 |
| 20260507020745 | 49 | 0 | 2.0 | 6.0 | 0.00 | 0.00 | 0.00 | 40 | 1014.0 |
| 20260507015734 | 49 | 0 | 3.0 | 9.0 | 0.00 | 0.00 | 0.00 | 39 | 1013.8 |
| 20260507015228 | 49 | 0 | 3.0 | 9.0 | 0.00 | 0.00 | 0.00 | 39 | 1013.7 |
| 20260507014216 | 50 | 0 | 3.0 | 5.0 | 0.00 | 0.00 | 0.00 | 40 | 1013.6 |
| 20260507012658 | 51 | 0 | 3.0 | 6.0 | 0.00 | 0.00 | 0.00 | 39 | 1013.5 |
| 20260507012152 | 51 | 0 | 3.0 | 8.0 | 0.00 | 0.00 | 0.00 | 39 | 1013.4 |
| 20260507011646 | 51 | 0 | 3.0 | 8.0 | 0.00 | 0.00 | 0.00 | 39 | 1013.4 |
| 20260507011140 | 51 | 0 | 2.0 | 8.0 | 0.00 | 0.00 | 0.00 | 39 | 1013.3 |
| 20260507010634 | 51 | 0 | 2.0 | 5.0 | 0.00 | 0.00 | 0.00 | 38 | 1013.3 |
| 20260507010128 | 52 | 0 | 2.0 | 5.0 | 0.00 | 0.00 | 0.00 | 37 | 1013.2 |
| 20260507005621 | 52 | 0 | 2.0 | 5.0 | 0.00 | 0.00 | 0.00 | 37 | 1013.2 |
| 20260507004103 | 53 | 0 | 4.0 | 10.0 | 0.00 | 0.00 | 0.00 | 35 | 1013.1 |
| 20260507003558 | 53 | 0 | 4.0 | 10.0 | 0.00 | 0.00 | 0.00 | 35 | 1013.1 |
| 20260507003052 | 53 | 0 | 4.0 | 10.0 | 0.00 | 0.00 | 0.00 | 34 | 1013.1 |
| 20260507002546 | 54 | 0 | 4.0 | 10.0 | 0.00 | 0.00 | 0.00 | 34 | 1013.1 |
| 20260507002040 | 54 | 0 | 4.0 | 9.0 | 0.00 | 0.00 | 0.00 | 32 | 1013.1 |
| 20260507001533 | 55 | 0 | 6.0 | 17.0 | 0.00 | 0.00 | 0.00 | 31 | 1013.1 |
| 20260507001028 | 55 | 0 | 7.0 | 17.0 | 0.00 | 0.00 | 0.00 | 29 | 1013.0 |
| 20260507000522 | 55 | 0 | 8.0 | 17.0 | 0.00 | 0.00 | 0.00 | 29 | 1012.9 |
| 20260507000016 | 56 | 0 | 9.0 | 16.0 | 0.00 | 0.00 | 0.00 | 28 | 1012.8 |
| 20260506235004 | 56 | 0 | 6.0 | 15.0 | 0.00 | 0.00 | 0.00 | 27 | 1012.7 |
| 20260506234457 | 56 | 0 | 6.0 | 12.0 | 0.00 | 0.00 | 0.00 | 27 | 1012.7 |
| 20260506233952 | 56 | 0 | 7.0 | 14.0 | 0.00 | 0.00 | 0.00 | 27 | 1012.7 |
| 20260506233445 | 57 | 0 | 7.0 | 14.0 | 0.00 | 0.00 | 0.00 | 26 | 1012.7 |
| 20260506232940 | 57 | 0 | 5.0 | 14.0 | 0.00 | 0.00 | 0.00 | 29 | 1012.7 |
| 20260506231927 | 57 | 0 | 8.0 | 18.0 | 0.00 | 0.00 | 0.00 | 27 | 1012.8 |
| 20260506231422 | 57 | 0 | 8.0 | 18.0 | 0.00 | 0.00 | 0.00 | 26 | 1012.8 |
| 20260506230915 | 58 | 0 | 6.0 | 16.0 | 0.00 | 0.00 | 0.00 | 25 | 1012.6 |
| 20260506230410 | 57 | 0 | 5.0 | 13.0 | 0.00 | 0.00 | 0.00 | 28 | 1012.6 |
| 20260506225903 | 56 | 0 | 5.0 | 13.0 | 0.00 | 0.00 | 0.00 | 28 | 1012.6 |
| 20260506224852 | 56 | 0 | 5.0 | 13.0 | 0.00 | 0.00 | 0.00 | 29 | 1012.6 |
| 20260506224346 | 56 | 0 | 7.0 | 14.0 | 0.00 | 0.00 | 0.00 | 27 | 1012.7 |
| 20260506223840 | 57 | 0 | 8.0 | 15.0 | 0.00 | 0.00 | 0.00 | 26 | 1012.8 |
| 20260506223334 | 57 | 0 | 8.0 | 15.0 | 0.00 | 0.00 | 0.00 | 26 | 1012.7 |
| 20260506222322 | 58 | 0 | 7.0 | 14.0 | 0.00 | 0.00 | 0.00 | 30 | 1012.7 |
| 20260506221309 | 58 | 0 | 6.0 | 14.0 | 0.00 | 0.00 | 0.00 | 27 | 1012.8 |
| 20260506220804 | 58 | 0 | 6.0 | 14.0 | 0.00 | 0.00 | 0.00 | 29 | 1012.9 |
| 20260506220258 | 57 | 0 | 7.0 | 15.0 | 0.00 | 0.00 | 0.00 | 31 | 1012.9 |
| 20260506215752 | 57 | 0 | 7.0 | 15.0 | 0.00 | 0.00 | 0.00 | 29 | 1012.7 |
| 20260506215246 | 58 | 0 | 7.0 | 13.0 | 0.00 | 0.00 | 0.00 | 30 | 1012.7 |
| 20260506214740 | 58 | 0 | 8.0 | 13.0 | 0.00 | 0.00 | 0.00 | 30 | 1012.6 |
| 20260506214234 | 58 | 0 | 7.0 | 15.0 | 0.00 | 0.00 | 0.00 | 32 | 1012.6 |
| 20260506213728 | 58 | 0 | 6.0 | 15.0 | 0.00 | 0.00 | 0.00 | 29 | 1012.6 |
| 20260506213222 | 58 | 0 | 7.0 | 12.0 | 0.00 | 0.00 | 0.00 | 30 | 1012.4 |
| 20260506212716 | 57 | 0 | 7.0 | 13.0 | 0.00 | 0.00 | 0.00 | 31 | 1012.4 |
| 20260506211704 | 57 | 0 | 6.0 | 13.0 | 0.00 | 0.00 | 0.00 | 30 | 1012.5 |
| 20260506211158 | 57 | 0 | 7.0 | 13.0 | 0.00 | 0.00 | 0.00 | 29 | 1012.5 |
| 20260506210651 | 57 | 0 | 7.0 | 17.0 | 0.00 | 0.00 | 0.00 | 32 | 1012.6 |
| 20260506210146 | 57 | 0 | 7.0 | 17.0 | 0.00 | 0.00 | 0.00 | 29 | 1012.6 |
| 20260506205640 | 57 | 0 | 8.0 | 16.0 | 0.00 | 0.00 | 0.00 | 31 | 1012.6 |
| 20260506205134 | 57 | 0 | 8.0 | 16.0 | 0.00 | 0.00 | 0.00 | 30 | 1012.6 |
| 20260506204628 | 57 | 0 | 6.0 | 12.0 | 0.00 | 0.00 | 0.00 | 34 | 1012.7 |
| 20260506204122 | 57 | 0 | 6.0 | 12.0 | 0.00 | 0.00 | 0.00 | 34 | 1012.6 |
| 20260506203616 | 57 | 0 | 6.0 | 13.0 | 0.00 | 0.00 | 0.00 | 32 | 1012.6 |
| 20260506203109 | 57 | 0 | 6.0 | 13.0 | 0.00 | 0.00 | 0.00 | 31 | 1012.7 |
| 20260506202604 | 57 | 0 | 7.0 | 12.0 | 0.00 | 0.00 | 0.00 | 32 | 1012.7 |
| 20260506202058 | 56 | 0 | 8.0 | 16.0 | 0.00 | 0.00 | 0.00 | 31 | 1012.8 |
| 20260506200034 | 57 | 0 | 6.0 | 12.0 | 0.00 | 0.00 | 0.00 | 31 | 1012.9 |
| 20260506195527 | 57 | 0 | 5.0 | 14.0 | 0.00 | 0.00 | 0.00 | 30 | 1012.8 |
| 20260506195022 | 57 | 0 | 7.0 | 14.0 | 0.00 | 0.00 | 0.00 | 29 | 1012.8 |
| 20260506194515 | 57 | 0 | 7.0 | 14.0 | 0.00 | 0.00 | 0.00 | 31 | 1012.8 |
| 20260506194010 | 58 | 0 | 6.0 | 14.0 | 0.00 | 0.00 | 0.00 | 30 | 1012.9 |
| 20260506193503 | 57 | 0 | 7.0 | 17.0 | 0.00 | 0.00 | 0.00 | 29 | 1012.9 |
| 20260506192958 | 57 | 0 | 7.0 | 17.0 | 0.00 | 0.00 | 0.00 | 30 | 1013.0 |
| 20260506191946 | 58 | 0 | 5.0 | 13.0 | 0.00 | 0.00 | 0.00 | 30 | 1012.9 |
| 20260506191439 | 58 | 0 | 5.0 | 10.0 | 0.00 | 0.00 | 0.00 | 31 | 1012.9 |
| 20260506190934 | 58 | 0 | 6.0 | 13.0 | 0.00 | 0.00 | 0.00 | 35 | 1012.9 |
| 20260506185921 | 58 | 0 | 5.0 | 10.0 | 0.00 | 0.00 | 0.00 | 29 | 1013.0 |
| 20260506185416 | 57 | 0 | 5.0 | 14.0 | 0.00 | 0.00 | 0.00 | 32 | 1013.0 |
| 20260506184909 | 58 | 0 | 6.0 | 14.0 | 0.00 | 0.00 | 0.00 | 27 | 1013.0 |
| 20260506184404 | 58 | 0 | 6.0 | 15.0 | 0.00 | 0.00 | 0.00 | 30 | 1013.0 |
| 20260506183858 | 58 | 0 | 5.0 | 15.0 | 0.00 | 0.00 | 0.00 | 29 | 1012.9 |
| 20260506182846 | 58 | 0 | 5.0 | 14.0 | 0.00 | 0.00 | 0.00 | 32 | 1013.0 |
| 20260506182340 | 58 | 0 | 4.0 | 12.0 | 0.00 | 0.00 | 0.00 | 27 | 1012.9 |